Weather History for Big Rapids, MI

Change the Weather History Date:

Saturday, February 9, 2013

  Actual Average Record
Temperature  
Mean Temperature 12 °F -  
Max Temperature 30 °F 30 °F 53 °F (1990)
Min Temperature -6 °F 6 °F -18 °F (1979)
Degree Days  
Heating Degree Days 53    
Moisture  
Dew Point 4 °F    
Average Humidity 74    
Maximum Humidity 93    
Minimum Humidity 55    
Precipitation  
Precipitation 0.00 in - - ()
Sea Level Pressure  
Sea Level Pressure 30.30 in    
Wind  
Wind Speed 2 mph (SSE)    
Max Wind Speed 12 mph    
Max Gust Speed 17 mph    
Visibility 7 miles    
Events Snow    
Averages and records for this station are not official NWS values.
T = Trace of Precipitation, MM = Missing Value Source: NWS Daily Summary

Daily Weather History Graph

Daily Weather History Graph

Search for Another Location

Airport:

Trip Planner

Search our weather history database for the weather conditions in past years. The results will help you decide how hot, cold, wet, or windy it might be!

Date:

Astronomy

Feb. 09, 2013 Rise Set
Actual Time 7:48 AM EST 6:04 PM EST
Civil Twilight 7:18 AM EST 6:34 PM EST
Nautical Twilight 6:44 AM EST 7:08 PM EST
Astronomical Twilight 6:11 AM EST 7:41 PM EST
Moon 6:59 AM EST (2/9) 5:47 PM EST (2/9)
Length of Visible Light 11h 15m
Length of Day
10h 15m
Waning Crescent, 0% of the Moon is Illuminated
Feb 9
Waning Crescent
Feb 10
New
Feb 17
First Quarter
Feb 25
Full
Mar 4
Last Quarter

Hourly Weather History & Observations

Time (EST) Temp. Windchill Dew Point Humidity Pressure Visibility Wind Dir Wind Speed Gust Speed Precip Events Conditions
12:34 AM -2.0 °F -10.1 °F -8.3 °F 75% 30.34 in 10.0 mi NNW 3.5 mph - N/A   Clear
12:54 AM 3.4 °F - -1.3 °F 81% 30.34 in 10.0 mi Calm Calm - N/A   Clear
1:14 AM 1.9 °F - -3.1 °F 79% 30.34 in 10.0 mi Calm Calm - N/A   Clear
1:35 AM -5.6 °F - -12.1 °F 74% 30.34 in 10.0 mi Calm Calm - N/A   Clear
1:54 AM -3.3 °F - -8.5 °F 78% 30.34 in 10.0 mi Calm Calm - N/A   Clear
2:14 AM -4.2 °F - -9.9 °F 76% 30.35 in 10.0 mi Calm Calm - N/A   Clear
2:34 AM -4.4 °F - -9.6 °F 78% 30.35 in 10.0 mi Calm Calm - N/A   Clear
2:54 AM -3.5 °F - -9.0 °F 77% 30.34 in 10.0 mi Calm Calm - N/A   Scattered Clouds
3:14 AM -6.9 °F - -13.2 °F 74% 30.34 in 10.0 mi Calm Calm - N/A   Overcast
3:34 AM -3.8 °F - -9.6 °F 76% 30.34 in 10.0 mi Calm Calm - N/A   Overcast
3:54 AM -3.5 °F - -8.5 °F 79% 30.34 in 10.0 mi Calm Calm - N/A   Overcast
4:14 AM -0.9 °F - -6.3 °F 78% 30.35 in 2.5 mi Calm Calm - N/A   Haze
4:34 AM -0.8 °F - -6.2 °F 78% 30.36 in 0.8 mi Calm Calm - N/A   Haze
4:54 AM -0.6 °F - -5.8 °F 79% 30.36 in 0.2 mi Calm Calm - N/A   Haze
5:14 AM -1.1 °F - -6.5 °F 78% 30.36 in 0.5 mi Calm Calm - N/A   Haze
5:34 AM -0.9 °F - -6.3 °F 78% 30.36 in 0.8 mi Calm Calm - N/A   Haze
5:54 AM -3.3 °F - -8.9 °F 77% 30.36 in 0.2 mi Calm Calm - N/A   Haze
6:14 AM -1.5 °F - -6.9 °F 78% 30.36 in 0.2 mi Calm Calm - N/A   Haze
6:34 AM -2.9 °F - -8.3 °F 78% 30.37 in 0.2 mi Calm Calm - N/A   Haze
6:54 AM -3.3 °F - -8.9 °F 77% 30.37 in 0.2 mi Calm Calm - N/A   Haze
7:14 AM -3.5 °F - -9.2 °F 76% 30.36 in 0.2 mi Calm Calm - N/A   Haze
7:34 AM -3.1 °F - -8.9 °F 76% 30.36 in 0.2 mi Calm Calm - N/A   Haze
7:54 AM -2.6 °F - -8.1 °F 77% 30.37 in 0.2 mi Calm Calm - N/A   Haze
8:14 AM -3.1 °F - -8.7 °F 77% 30.37 in 0.2 mi Calm Calm - N/A   Haze
8:34 AM -2.0 °F - -7.8 °F 76% 30.37 in 0.2 mi Calm Calm - N/A   Haze
8:54 AM -1.5 °F - -6.9 °F 78% 30.38 in 0.2 mi Calm Calm - N/A   Haze
9:14 AM -0.2 °F - -5.4 °F 79% 30.38 in 0.2 mi Calm Calm - N/A   Haze
9:34 AM -0.0 °F - -5.4 °F 78% 30.38 in 0.5 mi Calm Calm - N/A   Haze
9:54 AM 3.0 °F - -2.2 °F 79% 30.37 in 2.0 mi Calm Calm - N/A Snow Light Snow
10:14 AM 4.5 °F - -0.9 °F 78% 30.38 in 5.0 mi Calm Calm - N/A   Haze
10:34 AM 5.5 °F - 0.5 °F 80% 30.37 in 5.0 mi Calm Calm - N/A   Haze
10:54 AM 9.1 °F - 4.8 °F 83% 30.37 in 5.0 mi Calm Calm - N/A   Clear
11:14 AM 11.7 °F - 7.2 °F 82% 30.36 in 7.0 mi Calm Calm - N/A   Clear
11:34 AM 18.5 °F 8.4 °F 16.5 °F 92% 30.36 in 10.0 mi South 8.1 mph - N/A   Clear
11:54 AM 20.1 °F 8.8 °F 18.3 °F 93% 30.35 in 10.0 mi South 10.4 mph - N/A   Clear
12:14 PM 21.2 °F 12.6 °F 19.4 °F 93% 30.34 in 10.0 mi South 6.9 mph - N/A   Clear
12:34 PM 22.1 °F 12.8 °F 18.5 °F 86% 30.33 in 10.0 mi South 8.1 mph - N/A   Clear
12:54 PM 23.7 °F 14.0 °F 17.2 °F 76% 30.31 in 10.0 mi South 9.2 mph 17.3 mph N/A   Clear
1:14 PM 26.1 °F 18.4 °F 14.7 °F 62% 30.31 in 10.0 mi South 6.9 mph - N/A   Clear
1:34 PM 26.8 °F 16.5 °F 14.9 °F 61% 30.30 in 10.0 mi South 11.5 mph - N/A   Clear
1:54 PM 27.5 °F 20.2 °F 15.3 °F 60% 30.29 in 10.0 mi SSE 6.9 mph - N/A   Clear
2:14 PM 27.9 °F 18.4 °F 15.6 °F 60% 30.28 in 10.0 mi South 10.4 mph - N/A   Clear
2:34 PM 28.4 °F 19.7 °F 15.6 °F 59% 30.27 in 10.0 mi South 9.2 mph - N/A   Clear
2:54 PM 29.3 °F 20.8 °F 15.6 °F 57% 30.26 in 10.0 mi South 9.2 mph - N/A   Clear
3:14 PM 29.3 °F 20.2 °F 15.8 °F 57% 30.26 in 10.0 mi South 10.4 mph - N/A   Clear
3:34 PM 29.5 °F 24.5 °F 15.6 °F 56% 30.25 in 10.0 mi South 4.6 mph - N/A   Clear
3:54 PM 29.7 °F 23.7 °F 15.6 °F 56% 30.25 in 10.0 mi SSE 5.8 mph - N/A   Clear
4:14 PM 30.0 °F 26.5 °F 15.6 °F 55% 30.25 in 10.0 mi South 3.5 mph - N/A   Clear
4:34 PM 30.4 °F 23.6 °F 16.3 °F 56% 30.25 in 10.0 mi SSE 6.9 mph - N/A   Clear
4:54 PM 30.0 °F 22.4 °F 15.8 °F 56% 30.24 in 10.0 mi SE 8.1 mph - N/A   Clear
5:14 PM 29.8 °F 22.2 °F 16.0 °F 56% 30.22 in 10.0 mi SE 8.1 mph - N/A   Clear
5:34 PM 29.3 °F 23.2 °F 16.2 °F 58% 30.23 in 10.0 mi SSE 5.8 mph - N/A   Clear
5:54 PM 28.6 °F 22.4 °F 15.8 °F 59% 30.23 in 10.0 mi SE 5.8 mph - N/A   Clear
6:14 PM 27.9 °F 20.6 °F 15.8 °F 61% 30.23 in 10.0 mi SSE 6.9 mph - N/A   Clear
6:34 PM 26.6 °F 21.2 °F 15.8 °F 64% 30.22 in 10.0 mi SE 4.6 mph - N/A   Clear
6:54 PM 25.7 °F 20.1 °F 15.6 °F 66% 30.22 in 10.0 mi SE 4.6 mph - N/A   Clear
7:14 PM 25.3 °F 18.5 °F 15.4 °F 66% 30.21 in 10.0 mi SE 5.8 mph - N/A   Clear
7:34 PM 24.6 °F 20.3 °F 15.1 °F 67% 30.21 in 10.0 mi SE 3.5 mph - N/A   Clear
7:54 PM 23.4 °F 18.9 °F 14.5 °F 69% 30.20 in 10.0 mi SSE 3.5 mph - N/A   Clear
8:14 PM 19.0 °F - 12.7 °F 76% 30.21 in 10.0 mi Calm Calm - N/A   Clear
8:34 PM 13.6 °F - 8.2 °F 79% 30.20 in 10.0 mi Calm Calm - N/A   Clear
8:54 PM 10.4 °F - 6.6 °F 85% 30.20 in 10.0 mi Calm Calm - N/A   Clear
9:14 PM 9.3 °F - 5.4 °F 84% 30.20 in 10.0 mi Calm Calm - N/A   Clear
9:34 PM 8.8 °F - 5.7 °F 87% 30.19 in 7.0 mi Calm Calm - N/A   Clear
9:54 PM 9.5 °F - 5.9 °F 85% 30.19 in 10.0 mi Calm Calm - N/A   Clear
10:14 PM 9.5 °F - 6.1 °F 86% 30.19 in 10.0 mi Calm Calm - N/A   Clear
10:34 PM 12.7 °F - 9.5 °F 87% 30.18 in 10.0 mi Calm Calm - N/A   Clear
10:54 PM 12.4 °F - 8.6 °F 85% 30.18 in 7.0 mi Calm Calm - N/A   Scattered Clouds
11:14 PM 12.6 °F - 8.6 °F 84% 30.18 in 10.0 mi Calm Calm - N/A   Scattered Clouds
11:34 PM 13.1 °F - 9.3 °F 85% 30.17 in 10.0 mi Calm Calm - N/A   Clear
11:54 PM 12.7 °F - 8.8 °F 84% 30.17 in 10.0 mi Calm Calm - N/A   Clear